RH
68 65 59 56 57 61 66 69 64 68 70 69 70 70 70 70 70 73 75 77 77 76 76 76 75 77 51 28 21 13 44 30 14 15 17 18 16 14 16 15 14 27 36 39 39 42 44
61 65 68 61 58 59 66 66 64 68 70 69 69 70 71 70 69 72 76 77 77 76 76 76 76 77 39 26 16 15 14 12 13 16 17 18 18 18 16 16 15 30 38 41 40 42 42
61 63 67 69 64 60 64 70 66 67 70 69 69 70 71 71 72 72 75 78 79 78 76 77 77 65 38 19 18 20 14 11 12 15 17 17 20 16 15 21 28 30 34 31 42 33 39
64 65 62 67 70 64 64 71 70 66 72 70 70 71 75 76 74 75 76 80 80 80 79 77 74 50 39 20 24 13 11 11 13 14 16 17 20 20 17 18 19 21 21 24 43 38 42
84 77 70 66 72 76 69 70 72 68 69 71 70 72 77 79 80 81 82 82 84 80 78 80 50 24 21 24 13 12 12 12 13 15 20 16 20 23 16 18 21 22 22 28 35 44 40
74 78 80 80 68 68 74 70 73 75 74 74 70 71 76 78 80 81 82 85 80 72 51 42 24 27 20 16 14 13 11 12 14 20 18 20 23 22 17 16 23 23 29 44 46 53 46
76 73 75 82 81 72 68 71 74 76 75 72 70 71 76 78 79 79 88 60 41 34 50 19 22 24 20 17 15 12 12 14 17 19 22 25 20 18 17 20 18 28 37 51 57 50 55
75 73 72 76 81 84 80 80 78 79 74 72 74 74 77 78 78 82 78 65 74 72 68 50 49 38 32 21 18 14 13 17 21 23 24 24 29 27 24 22 26 32 40 54 55 52 52
69 70 70 70 73 77 79 80 82 80 76 76 78 74 76 82 80 69 76 68 61 72 72 47 44 34 22 16 18 16 14 19 22 24 26 27 26 25 26 27 32 34 35 53 46 56 54
64 68 67 68 69 72 74 78 81 82 79 81 83 80 82 81 69 78 73 62 65 75 40 28 49 30 16 17 18 13 14 18 24 30 29 29 27 27 28 29 24 31 29 42 50 39 41
57 58 64 67 70 73 72 75 78 81 84 79 83 81 83 76 81 73 67 62 73 52 64 31 27 16 18 16 15 15 15 19 26 28 28 31 29 30 30 32 33 38 40 41 38 40 46
60 55 57 61 68 72 71 73 78 76 80 85 84 82 82 75 82 68 66 73 58 62 51 36 20 22 22 20 19 16 16 22 24 26 26 27 22 24 28 31 32 36 37 40 42 42 49
63 61 57 57 63 69 72 73 78 80 81 85 85 83 81 81 69 71 71 59 71 72 31 30 25 24 24 23 21 19 23 28 27 33 33 27 27 23 27 32 30 32 35 45 50 59 49
56 61 65 60 60 64 66 68 79 78 79 84 86 84 81 78 72 77 73 54 69 37 38 25 26 26 27 23 22 22 26 28 28 28 31 32 34 26 26 32 31 34 37 43 41 45 49
55 56 63 65 58 61 66 68 71 77 80 83 85 85 83 79 84 80 70 87 72 33 26 29 25 28 28 26 24 23 29 32 28 29 34 34 35 25 26 25 26 40 42 42 61 64 60
58 57 59 68 66 59 61 65 67 71 73 82 98 84 81 80 88 83 88 78 48 41 61 38 33 31 32 31 30 29 31 30 30 30 34 39 36 27 36 30 39 33 41 55 59 78 68
61 57 63 65 70 64 59 62 65 70 72 79 98 88 73 84 83 86 96 87 60 51 58 57 31 35 31 34 33 36 32 31 33 34 34 36 39 34 30 31 44 48 53 66 57 55 46
60 56 66 67 66 70 65 58 64 69 73 81 97 99 72 82 90 90 89 72 67 60 53 61 48 33 37 41 38 38 38 33 37 36 36 36 41 40 32 30 36 41 48 49 82 77 74
62 63 64 68 68 66 69 58 63 63 70 98 100 98 84 73 97 98 89 76 66 58 56 52 46 39 35 43 44 39 42 45 47 42 46 43 49 50 36 31 36 40 52 49 55 65 82
64 65 67 68 68 71 66 61 58 60 75 96 100 100 94 96 67 66 70 68 68 53 53 50 52 48 41 43 52 54 47 46 45 40 56 50 43 40 45 36 37 40 53 48 38 56 52
64 68 68 74 72 72 66 67 56 59 79 96 100 99 80 96 98 64 62 50 61 54 55 49 46 50 40 70 56 51 51 49 50 58 48 48 46 39 36 38 33 35 48 46 33 36 33
65 66 68 69 69 73 68 69 59 57 69 100 100 100 99 83 88 83 65 61 46 45 54 51 57 45 52 48 46 62 51 48 49 41 47 44 66 50 74 42 31 33 40 44 37 36 30
62 64 67 68 69 69 73 72 65 58 84 100 99 98 99 94 81 86 82 68 57 50 48 56 52 54 53 44 42 45 46 50 48 49 50 49 67 65 65 44 37 52 37 45 41 34 32
66 68 66 67 72 68 70 72 72 61 81 97 99 100 97 90 90 90 76 71 66 58 58 52 53 55 52 53 52 52 53 52 50 59 52 53 55 61 78 46 70 40 30 30 38 37 32
66 65 69 72 72 71 72 74 75 71 77 96 97 98 96 94 82 77 89 81 70 67 67 54 48 47 56 53 70 80 84 76 78 66 55 52 57 84 79 62 34 27 31 36 42 32 32
65 64 69 73 73 69 66 71 71 71 69 95 97 98 100 98 79 75 84 89 88 82 74 65 55 60 63 71 81 84 81 67 68 67 58 51 53 68 82 64 58 27 30 32 27 36 27
62 62 69 72 72 71 75 68 66 66 68 95 98 92 99 98 78 81 78 85 97 82 77 70 68 69 63 87 90 86 69 54 63 56 74 67 76 74 78 62 35 28 34 31 39 35 31
60 59 66 72 72 69 73 70 74 69 68 93 99 91 95 98 85 74 77 88 82 92 95 86 77 81 84 84 85 81 80 69 59 52 53 56 71 72 73 69 52 35 34 40 38 40 38
62 64 64 69 73 72 73 71 71 75 74 86 100 92 89 98 85 82 83 78 66 61 88 89 92 86 76 85 84 82 79 78 66 79 59 54 53 70 52 49 41 43 39 41 42 40 38
Wind_Speed
7 6 6 6 7 8 10 11 8 10 12 13 15 17 18 19 19 19 18 18 17 18 18 16 15 15 4 2 4 2 7 8 1 1 2 2 2 2 5 6 8 13 11 18 22 25 25
7 9 7 6 7 9 11 6 7 9 11 13 14 16 18 19 19 19 19 18 18 17 18 16 13 13 1 1 1 3 6 4 3 2 1 1 3 1 5 5 4 16 23 15 13 18 14
8 8 8 6 7 8 10 12 7 10 9 11 14 16 17 19 20 20 20 20 20 19 17 15 10 2 2 6 1 5 3 1 1 1 1 1 2 1 4 12 11 21 25 15 12 3 5
8 9 8 8 8 8 9 13 8 11 11 10 13 15 16 18 19 20 21 19 21 21 17 12 5 1 4 3 4 3 1 0 0 1 0 1 2 5 4 17 8 11 8 7 6 4 6
15 11 10 9 7 10 9 10 9 12 13 11 11 15 15 17 19 20 21 22 22 16 7 5 2 1 5 7 2 3 1 1 1 2 4 3 4 5 10 16 9 6 10 10 4 12 3
17 19 17 13 8 10 11 9 7 9 12 11 9 14 16 18 19 20 23 21 10 7 1 2 0 1 3 0 3 4 2 2 2 3 2 5 5 5 7 12 12 10 8 6 5 9 17
16 16 19 21 11 10 11 11 9 6 8 11 12 14 16 18 20 21 11 4 4 2 3 3 2 2 2 5 2 2 1 2 2 6 4 4 4 11 17 2 11 13 14 15 4 2 8
14 15 15 17 19 15 14 14 14 10 7 11 11 13 16 19 21 17 1 4 3 1 5 3 5 5 4 2 1 3 0 3 3 5 2 5 5 2 8 13 18 17 22 9 5 5 6
15 16 16 17 16 16 17 17 15 12 8 10 10 12 16 19 22 4 3 4 7 1 1 5 4 4 4 5 3 3 2 2 5 4 3 6 4 6 14 15 21 8 12 10 9 9 8
16 16 17 17 17 15 16 16 18 17 11 9 9 10 13 21 4 5 1 8 6 2 3 4 4 5 4 4 1 1 2 3 4 10 7 7 3 11 12 12 11 7 6 11 19 7 5
16 15 17 17 17 16 13 14 15 18 16 10 8 8 9 6 4 3 6 10 4 1 3 2 3 1 2 5 3 1 2 4 5 4 3 1 6 9 9 4 3 6 14 15 7 6 7
14 14 15 17 16 16 15 14 12 15 19 13 7 7 8 3 2 4 8 8 1 6 7 4 4 4 5 1 1 1 3 6 4 6 10 5 2 3 3 5 6 16 14 8 4 3 2
15 14 14 15 16 15 15 16 10 10 14 17 11 7 5 1 4 5 7 2 4 4 3 5 5 5 4 4 3 3 4 5 6 7 3 3 3 1 5 16 4 6 7 4 3 3 2
16 16 16 14 14 14 15 16 12 10 10 14 17 4 4 4 3 4 3 3 4 4 5 2 4 7 5 6 2 3 5 6 3 6 6 6 5 7 3 4 8 8 2 5 6 5 4
15 17 16 17 13 13 14 15 15 13 12 13 14 2 3 3 2 3 2 2 9 6 4 7 5 5 4 4 5 4 5 7 5 6 6 6 2 1 1 4 3 5 4 3 7 2 2
17 17 17 16 14 12 12 13 14 12 13 14 2 3 4 2 4 2 2 6 4 3 3 2 5 4 9 8 6 7 9 5 6 4 2 7 7 2 4 4 10 1 8 4 1 6 5
17 17 16 16 15 13 12 12 13 13 12 12 0 2 2 2 2 2 7 7 4 5 4 3 4 5 5 7 6 6 12 1 4 7 4 6 4 4 4 5 9 6 4 5 4 1 3
18 17 16 17 15 14 12 11 11 11 10 5 0 3 1 1 3 0 6 4 2 3 2 3 2 3 6 7 6 5 10 3 8 11 10 5 6 5 3 2 3 2 6 6 4 6 2
18 17 16 18 16 15 11 9 10 9 5 3 2 2 2 1 5 3 4 3 3 2 1 1 2 3 2 6 4 4 5 2 6 8 10 9 4 7 3 0 1 5 5 4 8 4 7
17 17 18 18 16 15 11 9 9 7 2 1 3 2 3 2 2 4 4 4 6 3 3 2 3 1 2 3 2 6 4 0 2 3 5 7 5 5 8 4 6 7 9 12 6 4 7
17 17 17 17 16 12 14 10 8 6 5 1 2 2 2 5 6 4 5 2 8 7 3 3 2 3 1 3 3 3 3 3 3 5 3 4 5 3 3 4 4 6 13 16 14 6 8
18 17 17 17 16 13 13 11 9 7 3 1 2 2 2 2 3 14 9 5 8 4 3 4 3 1 4 2 3 8 7 5 5 2 3 1 4 3 2 4 2 2 8 16 15 9 11
19 17 17 17 17 15 12 10 11 6 7 1 1 0 2 4 5 7 6 12 8 7 3 5 3 1 1 1 2 3 3 4 6 9 8 7 8 4 4 4 4 5 16 16 12 12 15
17 17 18 18 17 16 14 10 11 11 10 2 1 1 1 3 3 2 3 13 15 10 9 1 1 2 1 4 4 6 10 8 6 5 2 9 8 3 4 6 4 4 1 13 17 9 19
16 17 18 18 17 15 13 12 9 14 15 3 3 2 2 2 2 3 9 6 8 9 12 7 3 2 2 1 2 3 4 5 5 6 2 1 7 5 6 5 4 5 7 9 14 12 21
16 16 17 15 13 13 12 9 9 10 13 4 3 2 1 1 2 2 2 5 4 3 3 6 2 3 5 2 2 5 6 5 5 3 3 4 6 4 4 5 8 3 3 7 9 7 6
16 16 16 15 13 13 13 9 9 6 13 4 2 6 1 2 2 2 2 2 5 4 2 3 4 1 4 3 2 4 6 4 9 12 7 4 3 5 4 3 5 6 3 8 6 3 1
18 16 16 16 13 12 14 11 9 9 11 7 2 7 4 2 4 2 2 3 1 2 3 3 2 2 2 6 4 5 5 7 5 8 9 9 8 5 3 2 8 8 7 8 2 1 2
17 18 16 15 13 11 13 12 11 11 9 8 2 4 3 1 3 2 6 6 5 6 2 3 4 2 1 3 3 1 3 2 6 6 2 7 6 8 10 7 1 9 3 5 3 1 1
Wind_Direction
322 325 325 324 326 323 321 332 356 348 349 350 349 350 348 344 341 336 333 329 328 325 323 322 323 326 347 7 259 321 350 338 87 181 38 123 129 146 135 122 97 104 96 78 96 90 87
321 319 287 299 316 316 317 3 345 339 340 346 347 348 346 344 340 334 328 324 319 317 316 316 322 326 31 318 262 356 347 343 18 38 69 64 139 157 89 70 65 112 104 97 80 85 83
314 325 331 277 295 308 311 316 325 318 321 336 339 342 341 340 337 332 325 320 315 310 310 306 310 343 78 235 311 327 315 270 218 220 145 111 116 96 108 96 114 121 106 105 29 14 120
296 310 309 318 284 294 301 319 288 314 313 322 328 335 335 332 331 328 323 316 309 304 298 290 289 214 253 262 316 315 334 305 291 232 222 99 101 92 78 122 117 115 95 124 31 8 16
2 317 310 309 301 282 288 306 323 340 332 305 325 331 332 329 326 324 320 312 302 296 262 284 258 83 276 313 13 319 264 285 306 62 29 84 70 66 134 129 122 18 137 113 123 22 127
1 2 357 322 289 300 295 295 309 334 334 319 337 330 330 330 325 324 320 307 296 303 145 173 43 327 287 295 305 319 322 297 120 121 76 48 64 107 136 155 161 159 124 75 76 22 88
351 358 356 3 330 308 304 301 290 304 332 329 332 330 330 329 325 323 333 358 25 353 18 197 224 239 273 283 279 255 348 148 95 61 101 32 108 164 168 152 120 107 106 108 93 94 64
353 358 354 353 3 356 353 344 327 317 317 322 319 328 329 327 323 323 356 69 65 347 312 243 249 288 254 235 339 285 64 157 95 103 122 67 85 23 111 131 121 125 122 104 91 80 88
1 359 354 348 349 355 2 4 339 334 329 328 318 330 332 327 321 30 3 54 326 194 227 287 202 201 218 162 184 270 33 116 98 83 67 110 106 119 120 126 117 124 146 160 137 120 71
356 0 352 345 343 342 342 353 1 340 326 326 319 332 339 332 55 336 17 334 331 243 39 226 206 244 157 140 254 225 62 116 64 124 98 76 38 126 122 116 138 120 141 136 137 148 152
339 342 347 352 340 335 330 339 346 356 336 314 314 328 342 36 288 311 325 324 314 101 26 171 167 107 142 157 138 296 4 49 121 121 158 121 127 117 104 107 108 126 135 129 137 105 141
343 332 329 336 344 335 327 325 333 351 347 326 311 314 346 352 288 269 317 312 70 47 253 168 139 159 123 102 134 122 97 58 122 67 66 91 68 57 104 59 127 133 110 79 73 91 215
343 332 334 326 334 347 344 334 323 336 341 330 332 306 318 149 271 339 329 23 67 162 296 180 176 154 138 149 135 139 152 123 145 130 117 64 16 54 123 105 97 133 146 126 161 190 223
334 338 335 327 327 336 341 344 329 336 330 351 336 331 273 215 251 3 324 73 138 227 206 119 125 125 167 151 176 139 140 152 100 101 130 153 178 177 167 143 162 159 175 164 170 184 140
328 331 334 323 321 326 332 336 343 341 346 350 329 315 285 262 185 150 110 144 204 208 182 155 98 142 173 221 146 151 181 176 167 170 136 148 76 83 37 131 160 157 178 94 107 46 180
321 323 323 322 313 318 322 329 334 335 337 343 337 311 259 315 149 121 126 234 241 237 320 183 165 157 180 182 163 173 174 181 175 168 167 171 123 133 156 105 50 159 139 144 79 153 212
312 319 318 317 317 306 311 317 323 329 332 340 330 265 268 145 116 207 209 228 276 251 237 200 190 162 196 177 176 189 185 156 180 142 111 138 108 154 158 211 159 143 160 73 99 24 175
310 314 312 312 314 304 297 310 311 326 342 314 130 248 326 146 148 107 211 204 306 284 203 258 239 187 175 164 151 193 191 217 173 146 151 174 118 137 173 4 180 132 163 162 157 185 70
311 311 310 308 308 307 293 298 302 331 17 331 245 267 345 111 199 209 262 271 275 275 297 326 264 198 162 167 150 188 191 340 165 156 160 173 129 118 121 142 124 212 178 129 111 122 185
314 311 310 306 304 303 290 276 288 309 45 159 267 229 314 197 145 177 201 224 226 249 259 278 276 255 148 134 11 161 136 30 193 152 119 108 137 169 180 172 141 184 173 174 158 169 158
315 311 309 307 302 301 292 259 273 271 146 125 237 230 256 204 192 194 190 270 200 218 232 219 261 232 107 121 95 142 128 128 31 138 83 138 143 146 116 123 138 158 177 184 204 171 188
310 310 310 306 301 298 282 253 241 251 183 165 280 315 349 274 198 197 211 218 230 213 206 229 213 24 195 168 215 192 153 179 181 163 135 55 125 111 52 126 155 167 192 198 214 209 241
308 307 301 298 293 290 281 264 232 222 134 166 257 194 270 290 199 196 199 208 208 197 239 234 270 174 300 206 297 290 182 120 172 158 164 147 140 134 171 153 135 281 214 195 206 210 214
307 304 299 295 284 282 283 273 229 220 159 144 144 287 276 277 323 210 272 202 219 216 215 156 212 214 294 114 117 52 55 73 76 60 105 146 120 78 127 146 198 236 153 206 209 216 213
308 305 302 296 291 289 283 276 256 224 170 138 170 180 258 274 289 321 357 270 229 232 238 252 255 247 197 71 81 70 2 29 347 33 57 219 128 113 152 198 297 233 190 169 187 244 215
304 308 303 300 300 295 291 293 280 239 213 145 157 153 198 282 256 330 304 316 259 198 213 231 222 160 68 72 144 184 187 163 180 121 38 81 57 114 158 157 203 254 164 155 153 273 211
295 300 301 294 291 291 280 271 279 282 218 168 156 147 171 236 268 240 298 320 335 321 224 165 173 190 151 157 184 197 214 177 167 171 161 133 51 161 154 191 273 227 157 173 159 227 151
294 292 291 292 285 284 285 281 265 240 239 190 185 169 166 191 282 233 225 226 138 316 281 24 144 134 110 185 189 199 209 201 156 164 175 158 150 172 117 150 240 159 130 194 168 138 231
286 286 281 282 283 276 280 280 278 268 231 170 166 179 130 172 252 298 271 256 229 203 227 307 323 289 145 181 212 158 185 182 157 190 162 201 181 170 190 197 213 197 164 189 157 244 256